Home   Weather   Rockhampton   Past weeks

Flag for Australia Past Weather in Rockhampton, Queensland, Australia — Yesterday and Last 2 Weeks

Now
82 °F

Clear.


Feels Like: 85 °F
Forecast: 76 / 90 °F
Wind: 6 mph from Northeast

Location: Rockhampton Airport

Current Time: Jan 21, 2017 at 11:47:46 pm

Latest Report: Jan 21, 2017 at 11:00 pm


Visibility: N/A

Pressure: 29.80 "Hg

Humidity: 62%

Dew Point: 68 °F

Location of RockhamptonLocation

Past Weather in Rockhampton — Graph

°F

Rockhampton Temperature Yesterday

Maximum temperature yesterday: 99 °F (at 2:30 pm)
Minimum temperature yesterday: 77 °F (at 4:00 am)
Average temperature yesterday: 86 °F

High & Low Weather Summary for the Past Weeks

 TemperatureHumidityPressure
High102 °F (Jan 21, 4:00 pm)100% (Jan 10, 2:00 am)29.98 "Hg (Jan 10, 2:00 am)
Low72 °F (Jan 8, 1:30 am)21% (Jan 21, 4:00 pm)29.65 "Hg (Jan 14, 4:00 pm)
Average82 °F71%29.81 "Hg
* Reported Jan 6 10:00 pm — Jan 21 10:30 pm, Rockhampton, Weather by CustomWeather, © 2017

Note: Actual official high and low records may vary slightly from our data, if they occured in-between our weather recording intervals... More about our weather records

Advertising

Rockhampton Weather History for the Previous 24 Hours

Scroll right to see more
 ConditionsComfort  
Time TempWeatherWind HumidityBarometerVisibility
10:30 pm
Sat, Jan 21
84 °FClear.7 mph55%29.80 "HgN/A
10:00 pm84 °FClear.7 mph55%29.80 "HgN/A
9:00 pm86 °FClear.9 mph55%29.77 "HgN/A
8:30 pm88 °FClear.7 mph55%29.77 "HgN/A
8:00 pm88 °FClear.2 mph62%29.74 "HgN/A
7:30 pm90 °FClear.10 mph63%29.71 "HgN/A
7:00 pm90 °FClear.12 mph63%29.71 "HgN/A
6:30 pm91 °FSunny.13 mph49%29.68 "HgN/A
6:00 pm93 °FSunny.14 mph44%29.68 "HgN/A
5:30 pm95 °FSunny.15 mph44%29.65 "HgN/A
5:00 pm99 °FSunny.15 mph39%29.65 "HgN/A
4:30 pm102 °FSunny.7 mph23%29.65 "HgN/A
4:00 pm102 °FSunny.8 mph21%29.65 "HgN/A
3:30 pm100 °FSunny.8 mph24%29.65 "HgN/A
3:00 pm100 °FSunny.6 mph27%29.68 "HgN/A
2:30 pm100 °FSunny.5 mph29%29.68 "HgN/A
2:00 pm99 °FSunny.7 mph27%29.71 "HgN/A
1:30 pm99 °FSunny.7 mph31%29.71 "HgN/A
1:00 pm97 °FSunny.6 mph32%29.71 "HgN/A
12:30 pm95 °FSunny.8 mph36%29.74 "HgN/A
12:00 pm95 °FSunny.7 mph34%29.74 "HgN/A
11:30 am93 °FSunny.6 mph36%29.77 "HgN/A
11:00 am91 °FSunny.9 mph36%29.77 "HgN/A
10:30 am90 °FSunny.8 mph38%29.80 "HgN/A
10:00 am90 °FSunny.9 mph41%29.80 "HgN/A
9:30 am88 °FSunny.10 mph46%29.80 "HgN/A
9:00 am84 °FSunny.9 mph55%29.80 "HgN/A
8:30 am84 °FSunny.13 mph55%29.80 "HgN/A
8:00 am81 °FSunny.9 mph62%29.80 "HgN/A
7:30 am79 °FSunny.6 mph65%29.80 "HgN/A
7:00 am77 °FSunny.5 mph74%29.80 "HgN/A
6:30 am73 °FSunny.2 mph83%29.80 "HgN/A
6:00 am73 °FSunny.3 mph83%29.77 "HgN/A
5:30 am72 °FSunny.6 mph88%29.77 "HgN/A
5:00 am72 °FClear.5 mph88%29.74 "HgN/A
4:30 am72 °FClear.3 mph88%29.74 "HgN/A
4:00 am73 °FClear.2 mph83%29.74 "HgN/A
3:30 am73 °FClear.3 mph83%29.74 "HgN/A
3:00 am73 °FClear.3 mph83%29.74 "HgN/A
2:30 am73 °FClear.3 mph83%29.74 "HgN/A
2:00 am73 °FClear.6 mph89%29.74 "HgN/A
1:30 am75 °FClear.6 mph78%29.74 "HgN/A
1:00 am75 °FClear.5 mph78%29.74 "HgN/A
12:30 am77 °FClear.8 mph74%29.74 "HgN/A
12:00 am77 °FClear.6 mph74%29.77 "HgN/A
11:30 pm
Fri, Jan 20
77 °FClear.6 mph74%29.77 "HgN/A
11:00 pm79 °FClear.7 mph70%29.77 "HgN/A
Weather by CustomWeather, © 2017

See weather overviewHow to use our weather pages